Satellite: NOAA-10
Catalog number: 16969
Epoch time:      10287.52663626
Element set:     239
Inclination:      098.6471 deg
RA of node:       315.3225 deg
Eccentricity:    0.0011606
Arg of perigee:   221.1138 deg
Mean anomaly:     138.9181 deg
Mean motion:   14.27430473 rev/day
Decay rate:       1.29e-06 rev/day^2
Epoch rev:           25260
Checksum:              291

Satellite: NOAA-11
Catalog number: 19531
Epoch time:      10287.32320956
Element set:     248
Inclination:      098.7662 deg
RA of node:       014.3016 deg
Eccentricity:    0.0011380
Arg of perigee:   164.4403 deg
Mean anomaly:     195.7129 deg
Mean motion:   14.14937229 rev/day
Decay rate:      -1.79e-06 rev/day^2
Epoch rev:           13798
Checksum:              303

Satellite: NOAA-12
Catalog number: 21263
Epoch time:      10287.38176840
Element set:     742
Inclination:      098.7636 deg
RA of node:       300.5230 deg
Eccentricity:    0.0012463
Arg of perigee:   176.8919 deg
Mean anomaly:     183.2351 deg
Mean motion:   14.25658626 rev/day
Decay rate:       -8.3e-07 rev/day^2
Epoch rev:             938
Checksum:              305

Satellite: MET-3/5
Catalog number: 21655
Epoch time:      10286.91950311
Element set:    0939
Inclination:      082.5578 deg
RA of node:       224.7362 deg
Eccentricity:    0.0014875
Arg of perigee:   055.4078 deg
Mean anomaly:     304.8396 deg
Mean motion:   13.17025245 rev/day
Decay rate:        5.1e-07 rev/day^2
Epoch rev:           92130
Checksum:              304

Satellite: MET-2/21
Catalog number: 22782
Epoch time:      10287.53650754
Element set:     910
Inclination:      082.5484 deg
RA of node:       157.7727 deg
Eccentricity:    0.0023775
Arg of perigee:   069.1070 deg
Mean anomaly:     291.2633 deg
Mean motion:   13.83649250 rev/day
Decay rate:       -1.0e-07 rev/day^2
Epoch rev:           86458
Checksum:              314

Satellite: OKEAN-4
Catalog number: 23317
Epoch time:      10287.76026685
Element set:     365
Inclination:      082.5398 deg
RA of node:       242.2388 deg
Eccentricity:    0.0021093
Arg of perigee:   204.0155 deg
Mean anomaly:     156.0082 deg
Mean motion:   14.82874225 rev/day
Decay rate:       2.68e-06 rev/day^2
Epoch rev:           86417
Checksum:              305

Satellite: NOAA-14
Catalog number: 23455
Epoch time:      10287.46228338
Element set:     231
Inclination:      098.8715 deg
RA of node:       007.3301 deg
Eccentricity:    0.0008548
Arg of perigee:   257.6094 deg
Mean anomaly:     102.4130 deg
Mean motion:   14.13796988 rev/day
Decay rate:        3.3e-07 rev/day^2
Epoch rev:           81435
Checksum:              299

Satellite: NOAA-15
Catalog number: 25338
Epoch time:      10287.46247027
Element set:     558
Inclination:      098.6322 deg
RA of node:       272.3234 deg
Eccentricity:    0.0011672
Arg of perigee:   087.7071 deg
Mean anomaly:     272.5439 deg
Mean motion:   14.24858825 rev/day
Decay rate:      -1.10e-06 rev/day^2
Epoch rev:           64573
Checksum:              312

Satellite: RESURS
Catalog number: 25394
Epoch time:      10287.71056236
Element set:     626
Inclination:      098.3032 deg
RA of node:       299.2745 deg
Eccentricity:    0.0000593
Arg of perigee:   188.0903 deg
Mean anomaly:     172.0269 deg
Mean motion:   14.24211926 rev/day
Decay rate:        1.0e-08 rev/day^2
Epoch rev:           63736
Checksum:              290

Satellite: FENGYUN1
Catalog number: 25730
Epoch time:      10287.81118491
Element set:     159
Inclination:      098.7961 deg
RA of node:       249.7056 deg
Eccentricity:    0.0021145
Arg of perigee:   290.7455 deg
Mean anomaly:     069.1462 deg
Mean motion:   14.08329243 rev/day
Decay rate:       8.28e-06 rev/day^2
Epoch rev:           58852
Checksum:              321

Satellite: OKEAN-0
Catalog number: 25860
Epoch time:      10286.56150876
Element set:    0124
Inclination:      097.8487 deg
RA of node:       255.3372 deg
Eccentricity:    0.0001941
Arg of perigee:   074.4775 deg
Mean anomaly:     285.6657 deg
Mean motion:   14.73669969 rev/day
Decay rate:        8.1e-07 rev/day^2
Epoch rev:           60433
Checksum:              337

Satellite: NOAA-16
Catalog number: 26536
Epoch time:      10287.43649241
Element set:      34
Inclination:      099.1660 deg
RA of node:       307.6938 deg
Eccentricity:    0.0010569
Arg of perigee:   007.4723 deg
Mean anomaly:     352.6593 deg
Mean motion:   14.12579250 rev/day
Decay rate:      -2.01e-06 rev/day^2
Epoch rev:           51866
Checksum:              307

Satellite: NOAA-17
Catalog number: 27453
Epoch time:      10287.50132799
Element set:      24
Inclination:      098.4164 deg
RA of node:       333.0568 deg
Eccentricity:    0.0012279
Arg of perigee:   144.7096 deg
Mean anomaly:     215.4899 deg
Mean motion:   14.24199446 rev/day
Decay rate:       2.08e-06 rev/day^2
Epoch rev:           43168
Checksum:              325

Satellite: NOAA-18
Catalog number: 28654
Epoch time:      10287.54059422
Element set:     514
Inclination:      098.9634 deg
RA of node:       233.5252 deg
Eccentricity:    0.0015194
Arg of perigee:   077.4451 deg
Mean anomaly:     282.8398 deg
Mean motion:   14.11399099 rev/day
Decay rate:       3.64e-06 rev/day^2
Epoch rev:           27827
Checksum:              337

Satellite: NOAA-19
Catalog number: 33591
Epoch time:      10287.48370890
Element set:     710
Inclination:      098.7994 deg
RA of node:       227.1187 deg
Eccentricity:    0.0013598
Arg of perigee:   315.0690 deg
Mean anomaly:     044.9380 deg
Mean motion:   14.11091057 rev/day
Decay rate:       -1.0e-07 rev/day^2
Epoch rev:            8673
Checksum:              314

/EX
SB KEPS @ AMSAT  $ORB10287.M
Orbital Elements  10287.MISC

HR AMSAT ORBITAL ELEMENTS FOR MANNED AND MISCELLANEOUS SATELLITES
FROM WA5QGD FORT WORTH,TX October 14, 2010
BID: ORB10287.M
TO ALL RADIO AMATEURS BT

Satellite: HUBBLE
Catalog number: 20580
Epoch time:      10286.13501496
Element set:     659
Inclination:      028.4688 deg
RA of node:       189.8229 deg
Eccentricity:    0.0003208
Arg of perigee:   020.5896 deg
Mean anomaly:     339.4857 deg
Mean motion:   15.01059772 rev/day
Decay rate:       6.38e-06 rev/day^2
Epoch rev:           92249
Checksum:              327

Satellite: ISS
Catalog number: 25544
Epoch time:      10287.98463575
Element set:      71
Inclination:      051.6475 deg
RA of node:       337.6888 deg
Eccentricity:    0.0007989
Arg of perigee:   094.5997 deg
Mean anomaly:     328.8197 deg
Mean motion:   15.71998344 rev/day
Decay rate:     1.1801e-04 rev/day^2
Epoch rev:           68231
Checksum:              367

Satellite: CO-58
Catalog number: 28895
Epoch time:      10287.71680889
Element set:     704
Inclination:      097.9939 deg
RA of node:       168.1150 deg
Eccentricity:    0.0016741
Arg of perigee:   270.8452 deg
Mean anomaly:     089.0876 deg
Mean motion:   14.59945709 rev/day
Decay rate:       1.62e-06 rev/day^2
Epoch rev:           26442
Checksum:              364

Satellite: FALCON
Catalog number: 30776
Epoch time:      10286.79395025
Element set:     935
Inclination:      035.4333 deg
RA of node:       044.1032 deg
Eccentricity:    0.0000184
Arg of perigee:   023.5969 deg
Mean anomaly:     336.4755 deg
Mean motion:   15.03870214 rev/day
Decay rate:       9.97e-06 rev/day^2
Epoch rev:           19792
Checksum:              305

Satellite: MAST
Catalog number: 31126
Epoch time:      10286.54938913
Element set:    0987
Inclination:      097.9243 deg
RA of node:       322.3689 deg
Eccentricity:    0.0093518
Arg of perigee:   217.7967 deg
Mean anomaly:     141.6664 deg
Mean motion:   14.53628644 rev/day
Decay rate:       1.46e-06 rev/day^2
Epoch rev:           18525
Checksum:              340

Satellite: CAPE1
Catalog number: 31130
Epoch time:      10286.57729447
Element set:    0006
Inclination:      097.9275 deg
RA of node:       319.5774 deg
Eccentricity:    0.0101658
Arg of perigee:   226.2967 deg
Mean anomaly:     132.9774 deg
Mean motion:   14.52232930 rev/day
Decay rate:       2.11e-06 rev/day^2
Epoch rev:           18484
Checksum:              309

Satellite: COMPASS
Catalog number: 32787
Epoch time:      10286.86955922
Element set:     802
Inclination:      097.8832 deg
RA of node:       349.9195 deg
Eccentricity:    0.0014572
Arg of perigee:   259.2819 deg
Mean anomaly:     100.6786 deg
Mean motion:   14.81996090 rev/day
Decay rate:       6.29e-06 rev/day^2
Epoch rev:           13307
Checksum:              347

Satellite: AAUSAT2
Catalog number: 32788
Epoch time:      10286.18579667
Element set:    0792
Inclination:      097.8822 deg
RA of node:       349.4011 deg
Eccentricity:    0.0013980
Arg of perigee:   264.1349 deg
Mean anomaly:     095.8269 deg
Mean motion:   14.82143977 rev/day
Decay rate:       2.58e-06 rev/day^2
Epoch rev:           13298
Checksum:              354

Satellite: DO-64
Catalog number: 32789
Epoch time:      10286.65339321
Element set:    0811
Inclination:      097.8891 deg
RA of node:       350.4766 deg
Eccentricity:    0.0014429
Arg of perigee:   258.6460 deg
Mean anomaly:     101.3151 deg
Mean motion:   14.82353885 rev/day
Decay rate:       7.39e-06 rev/day^2
Epoch rev:           13305
Checksum:              322

Satellite: CO-66
Catalog number: 32791
Epoch time:      10286.70688673
Element set:     794
Inclination:      097.8828 deg
RA of node:       349.7578 deg
Eccentricity:    0.0014946
Arg of perigee:   258.3523 deg
Mean anomaly:     101.5964 deg
Mean motion:   14.81761531 rev/day
Decay rate:       4.52e-06 rev/day^2
Epoch rev:           13300
Checksum:              344

